TimeCDT,TemperatureF,Dew PointF,Humidity,Sea Level PressureIn,VisibilityMPH,Wind Direction,Wind SpeedMPH,Gust SpeedMPH,PrecipitationIn,Events,Conditions,WindDirDegrees,DateUTC
12:56 AM,66.0,62.1,87,29.98,10.0,WSW,4.6,-,N/A,,Scattered Clouds,250,2012-11-01 05:56:00
1:56 AM,64.9,62.1,90,29.98,10.0,West,4.6,-,N/A,,Clear,260,2012-11-01 06:56:00
2:56 AM,66.0,62.1,87,29.98,10.0,West,4.6,-,N/A,,Overcast,270,2012-11-01 07:56:00
3:56 AM,66.0,61.0,84,29.97,10.0,WNW,4.6,-,N/A,,Overcast,290,2012-11-01 08:56:00
4:56 AM,64.0,60.1,87,29.98,10.0,NNW,3.5,-,N/A,,Overcast,330,2012-11-01 09:56:00
5:56 AM,61.0,59.0,93,30.00,10.0,North,6.9,-,N/A,,Mostly Cloudy,350,2012-11-01 10:56:00
6:02 AM,60.8,59.0,94,30.00,10.0,NNW,5.8,-,N/A,,Mostly Cloudy,340,2012-11-01 11:02:00
6:56 AM,57.9,53.1,84,30.01,10.0,NNE,6.9,-,N/A,,Partly Cloudy,20,2012-11-01 11:56:00
7:56 AM,60.1,52.0,75,30.04,10.0,North,3.5,-,N/A,,Partly Cloudy,10,2012-11-01 12:56:00
8:56 AM,63.0,48.0,58,30.05,10.0,NNE,8.1,-,N/A,,Partly Cloudy,20,2012-11-01 13:56:00
9:56 AM,66.0,39.0,37,30.07,10.0,NNE,9.2,-,N/A,,Partly Cloudy,30,2012-11-01 14:56:00
10:56 AM,70.0,37.9,31,30.09,10.0,NNE,9.2,-,N/A,,Partly Cloudy,30,2012-11-01 15:56:00
11:56 AM,72.0,39.9,31,30.07,10.0,North,6.9,-,N/A,,Partly Cloudy,10,2012-11-01 16:56:00
12:56 PM,73.0,42.1,33,30.03,10.0,Variable,3.5,-,N/A,,Clear,0,2012-11-01 17:56:00
1:56 PM,71.1,45.0,39,30.01,10.0,South,8.1,-,N/A,,Clear,170,2012-11-01 18:56:00
2:56 PM,72.0,46.0,40,29.99,10.0,SSW,6.9,-,N/A,,Clear,200,2012-11-01 19:56:00
3:56 PM,71.1,48.0,44,29.99,10.0,SW,10.4,-,N/A,,Clear,220,2012-11-01 20:56:00
4:56 PM,69.1,51.1,53,29.99,10.0,SW,6.9,-,N/A,,Clear,220,2012-11-01 21:56:00
5:56 PM,66.0,52.0,60,30.00,10.0,Calm,Calm,-,N/A,,Clear,0,2012-11-01 22:56:00
6:56 PM,55.9,52.0,87,30.01,10.0,Calm,Calm,-,N/A,,Clear,0,2012-11-01 23:56:00
7:56 PM,61.0,52.0,72,30.03,10.0,West,4.6,-,N/A,,Clear,280,2012-11-02 00:56:00
8:56 PM,60.1,48.9,67,30.04,10.0,West,3.5,-,N/A,,Clear,280,2012-11-02 01:56:00
9:56 PM,53.1,50.0,89,30.05,10.0,Calm,Calm,-,N/A,,Clear,0,2012-11-02 02:56:00
10:56 PM,48.9,48.0,97,30.05,10.0,Calm,Calm,-,N/A,,Clear,0,2012-11-02 03:56:00
11:56 PM,50.0,48.0,93,30.05,10.0,Calm,Calm,-,N/A,,Clear,0,2012-11-02 04:56:00